BEIDOU G4

Last updated on Tue Apr 02 2019 03:15:24 GMT+0000 (Coordinated Universal Time)

1 37210U 10057A 19091.88520647 -.00000124 00000-0 00000+0 0 9993 2 37210 1.0069 55.5053 0002584 181.0532 72.1006 1.00273094 30873
UTC large
Height (km)
Speed (km/s)
/
Latitude / Longitude
Inclination (degrees)
Orbital Period (minutes)
Azimuth
Elevation
Range (km)
Doppler Factor

Next 0 passes for location: London (51.5072 / 0.1276)

Sorry there are no passes over London.
BEIDOU G4